Beach, ND

9:42 PM MDT on April 30, 2017 (GMT -0600)
Beach

Weather History for K20U - October, 2011

Change the Weather History Date:

Saturday, October 15, 2011

  Actual Average (KGDV) Record (KGDV)
Temperature  
Mean Temperature 42 °F -  
Max Temperature 44 °F 55 °F 77 °F (2010)
Min Temperature 39 °F 32 °F 26 °F (2001)
Degree Days  
Heating Degree Days 24    
Moisture  
Dew Point 34 °F    
Average Humidity 74    
Maximum Humidity 93    
Minimum Humidity 57    
Precipitation  
Precipitation 0.02 in - - ()
Sea Level Pressure  
Sea Level Pressure 29.92 in    
Wind  
Wind Speed 3 mph (SE)    
Max Wind Speed 9 mph    
Max Gust Speed -    
Visibility 10 miles    
Events Rain    
Averages and records for this station are not official NWS values.
T = Trace of Precipitation, MM = Missing Value Source: NWS Daily Summary

Daily Weather History Graph

Daily Weather History Graph

Search for Another Location

Airport or City:

Trip Planner

Search our weather history database for the weather conditions in past years. The results will help you decide how hot, cold, wet, or windy it might be!

Date:

Astronomy

Oct. 15, 2011 Rise Set
Actual Time 7:13 AM MDT 6:09 PM MDT
Civil Twilight 6:42 AM MDT 6:39 PM MDT
Nautical Twilight 6:07 AM MDT 7:14 PM MDT
Astronomical Twilight 5:32 AM MDT 7:50 PM MDT
Moon 7:51 PM MDT (10/15) 10:55 AM MDT (10/15)
Length of Visible Light 11h 56m
Length of Day
10h 55m
Waning Gibbous, 88% of the Moon is Illuminated
Oct 15
Waning Gibbous
Oct 19
Last Quarter
Oct 26
New
Nov 2
First Quarter
Nov 10
Full

Hourly Weather History & Observations

Time (MDT) Temp. Windchill Dew Point Humidity Pressure Visibility Wind Dir Wind Speed Gust Speed Precip Events Conditions
12:15 AM 39.2 °F - 28.4 °F 65% 29.98 in 10.0 mi Calm Calm - N/A   Overcast
12:35 AM 39.2 °F - 30.2 °F 70% 29.97 in 10.0 mi Calm Calm - N/A   Overcast
12:55 AM 41.0 °F 38.0 °F 28.4 °F 61% 29.96 in 10.0 mi SE 4.6 mph - N/A   Overcast
1:15 AM 39.2 °F 37.0 °F 32.0 °F 75% 29.96 in 10.0 mi SSE 3.5 mph - N/A   Overcast
1:35 AM 41.0 °F 39.0 °F 32.0 °F 70% 29.96 in 10.0 mi SSW 3.5 mph - N/A   Overcast
1:55 AM 41.0 °F 39.0 °F 30.2 °F 65% 29.96 in 10.0 mi South 3.5 mph - N/A   Overcast
2:15 AM 41.0 °F 39.0 °F 28.4 °F 61% 29.95 in 10.0 mi South 3.5 mph - N/A   Overcast
2:35 AM 41.0 °F 38.0 °F 28.4 °F 61% 29.95 in 10.0 mi South 4.6 mph - N/A   Overcast
2:55 AM 41.0 °F 38.0 °F 30.2 °F 65% 29.95 in 10.0 mi SE 4.6 mph - N/A   Overcast
3:15 AM 41.0 °F 38.0 °F 32.0 °F 70% 29.94 in 10.0 mi SSE 4.6 mph - N/A   Overcast
3:35 AM 41.0 °F 38.0 °F 32.0 °F 70% 29.94 in 10.0 mi SSE 4.6 mph - N/A   Overcast
3:55 AM 41.0 °F 39.0 °F 30.2 °F 65% 29.94 in 10.0 mi SE 3.5 mph - N/A   Overcast
4:15 AM 41.0 °F - 30.2 °F 65% 29.93 in 10.0 mi Calm Calm - N/A   Overcast
4:35 AM 41.0 °F - 30.2 °F 65% 29.94 in 10.0 mi Calm Calm - N/A   Overcast
4:55 AM 41.0 °F - 30.2 °F 65% 29.93 in 10.0 mi Calm Calm - N/A   Overcast
5:15 AM 41.0 °F - 32.0 °F 70% 29.93 in 10.0 mi Calm Calm - N/A   Overcast
5:35 AM 41.0 °F 39.0 °F 32.0 °F 70% 29.92 in 10.0 mi SSE 3.5 mph - N/A   Overcast
5:55 AM 41.0 °F - 32.0 °F 70% 29.92 in 10.0 mi Calm Calm - N/A   Overcast
6:15 AM 41.0 °F 39.0 °F 32.0 °F 70% 29.91 in 10.0 mi ENE 3.5 mph - N/A   Overcast
6:35 AM 41.0 °F 38.0 °F 32.0 °F 70% 29.90 in 10.0 mi South 4.6 mph - N/A   Overcast
7:15 AM 41.0 °F 39.0 °F 30.2 °F 65% 29.90 in 10.0 mi SSE 3.5 mph - N/A   Overcast
7:35 AM 41.0 °F 38.0 °F 30.2 °F 65% 29.90 in 10.0 mi SSE 4.6 mph - N/A   Overcast
7:55 AM 41.0 °F 38.0 °F 30.2 °F 65% 29.89 in 10.0 mi South 4.6 mph - N/A   Overcast
8:15 AM 42.8 °F 39.3 °F 30.2 °F 61% 29.87 in 10.0 mi SE 5.8 mph - N/A   Overcast
8:35 AM 44.6 °F 43.1 °F 30.2 °F 57% 29.87 in 10.0 mi SE 3.5 mph - N/A   Overcast
8:55 AM 44.6 °F 42.2 °F 30.2 °F 57% 29.87 in 10.0 mi SE 4.6 mph - N/A   Overcast
9:15 AM 44.6 °F 42.2 °F 32.0 °F 61% 29.87 in 10.0 mi South 4.6 mph - N/A   Overcast
9:35 AM 44.6 °F 42.2 °F 32.0 °F 61% 29.88 in 10.0 mi East 4.6 mph - N/A   Overcast
10:15 AM 44.6 °F 39.7 °F 33.8 °F 66% 29.90 in 10.0 mi NE 9.2 mph - N/A   Overcast
10:35 AM 44.6 °F 40.2 °F 32.0 °F 61% 29.90 in 10.0 mi NE 8.1 mph - N/A   Overcast
10:55 AM 44.6 °F 43.1 °F 32.0 °F 61% 29.91 in 10.0 mi ENE 3.5 mph - N/A   Overcast
11:35 AM 41.0 °F 38.0 °F 35.6 °F 81% 29.92 in 5.0 mi East 4.6 mph - 0.02 in Rain Light Rain
11:55 AM 41.0 °F 37.1 °F 37.4 °F 87% 29.91 in 8.0 mi SE 5.8 mph - 0.02 in Rain Light Rain
12:15 PM 42.8 °F 39.3 °F 37.4 °F 81% 29.90 in 9.0 mi ESE 5.8 mph - N/A Rain Light Rain
12:35 PM 41.0 °F 38.0 °F 35.6 °F 81% 29.91 in 10.0 mi SE 4.6 mph - N/A Rain Light Rain
12:55 PM 41.0 °F 37.1 °F 37.4 °F 87% 29.90 in 7.0 mi ESE 5.8 mph - N/A Rain Light Rain
1:15 PM 41.0 °F 38.0 °F 37.4 °F 87% 29.89 in 8.0 mi ESE 4.6 mph - N/A Rain Light Rain
1:35 PM 41.0 °F 38.0 °F 37.4 °F 87% 29.88 in 10.0 mi East 4.6 mph - N/A   Scattered Clouds
1:55 PM 41.0 °F - 37.4 °F 87% 29.89 in 10.0 mi Calm Calm - N/A   Partly Cloudy
2:15 PM 42.8 °F - 35.6 °F 76% 29.90 in 10.0 mi Calm Calm - N/A   Mostly Cloudy
2:35 PM 42.8 °F 41.1 °F 35.6 °F 76% 29.90 in 10.0 mi NNE 3.5 mph - N/A   Overcast
2:55 PM 42.8 °F 38.6 °F 37.4 °F 81% 29.91 in 10.0 mi North 6.9 mph - N/A   Overcast
3:15 PM 42.8 °F 38.0 °F 37.4 °F 81% 29.92 in 10.0 mi North 8.1 mph - N/A   Overcast
3:35 PM 42.8 °F 38.0 °F 39.2 °F 87% 29.93 in 10.0 mi North 8.1 mph - N/A   Overcast
3:55 PM 42.8 °F 37.5 °F 39.2 °F 87% 29.94 in 10.0 mi North 9.2 mph - N/A   Overcast
4:15 PM 41.0 °F 35.2 °F 39.2 °F 93% 29.94 in 10.0 mi NNW 9.2 mph - N/A   Overcast
4:35 PM 41.0 °F 36.4 °F 37.4 °F 87% 29.94 in 10.0 mi NW 6.9 mph - N/A   Overcast
4:55 PM 42.8 °F 38.0 °F 39.2 °F 87% 29.95 in 10.0 mi NW 8.1 mph - N/A   Overcast
5:15 PM 41.0 °F 35.2 °F 39.2 °F 93% 29.95 in 10.0 mi NW 9.2 mph - N/A   Overcast
5:35 PM 41.0 °F 36.4 °F 39.2 °F 93% 29.95 in 8.0 mi NW 6.9 mph - N/A   Overcast
5:55 PM 41.0 °F 37.1 °F 39.2 °F 93% 29.95 in 7.0 mi WNW 5.8 mph - N/A   Mostly Cloudy
6:15 PM 41.0 °F 37.1 °F 39.2 °F 93% 29.96 in 5.0 mi West 5.8 mph - N/A   Overcast
6:35 PM 39.2 °F 34.2 °F 39.2 °F 100% 29.96 in 10.0 mi West 6.9 mph - N/A   Mostly Cloudy
6:55 PM 39.2 °F 34.2 °F 37.4 °F 93% 29.96 in 10.0 mi WSW 6.9 mph - N/A   Partly Cloudy
7:15 PM 37.4 °F 32.8 °F 37.4 °F 100% 29.96 in 10.0 mi WSW 5.8 mph - N/A   Clear
7:35 PM 37.4 °F 32.1 °F 37.4 °F 100% 29.97 in 10.0 mi WSW 6.9 mph - N/A   Clear
7:55 PM 37.4 °F 30.8 °F 37.4 °F 100% 29.97 in 10.0 mi WSW 9.2 mph - N/A   Clear
8:15 PM 37.4 °F 30.3 °F 37.4 °F 100% 29.98 in 10.0 mi WSW 10.4 mph - N/A   Clear
8:35 PM 37.4 °F 29.3 °F 37.4 °F 100% 29.98 in 10.0 mi WSW 12.7 mph - N/A   Clear
8:55 PM 37.4 °F 28.5 °F 37.4 °F 100% 29.98 in 10.0 mi WSW 15.0 mph - N/A   Mostly Cloudy
9:15 PM 39.2 °F 32.0 °F 39.2 °F 100% 29.99 in 10.0 mi West 11.5 mph - N/A   Overcast
9:35 PM 39.2 °F 29.6 °F 39.2 °F 100% 30.00 in 8.0 mi West 19.6 mph 26.5 mph N/A Rain Light Rain
9:55 PM 39.2 °F 31.6 °F 37.4 °F 93% 30.00 in 8.0 mi West 12.7 mph - N/A Rain Light Rain
10:15 PM 39.2 °F 33.0 °F 37.4 °F 93% 29.99 in 10.0 mi West 9.2 mph - N/A   Mostly Cloudy
10:35 PM 39.2 °F 31.2 °F 37.4 °F 93% 29.99 in 10.0 mi WSW 13.8 mph 18.4 mph N/A   Scattered Clouds
10:55 PM 39.2 °F 31.6 °F 37.4 °F 93% 30.00 in 10.0 mi WSW 12.7 mph - N/A   Clear
11:15 PM 37.4 °F 29.8 °F 37.4 °F 100% 30.01 in 10.0 mi West 11.5 mph - N/A   Mostly Cloudy
11:35 PM 37.4 °F 29.3 °F 37.4 °F 100% 30.01 in 10.0 mi West 12.7 mph 18.4 mph N/A   Overcast
11:55 PM 39.2 °F 31.2 °F 37.4 °F 93% 30.02 in 10.0 mi WNW 13.8 mph - N/A   Overcast